When you browse on this site, cookies collect data to enhance your experience and personalize the content and advertising you see.
Visit our Privacy Policy to learn more. By continuing to use the site, you agree to this use of cookies and data.
  • Em Portugal
  • Lista de países
  • Para 7 dias
  • Temperatura da água
  • Mapas de satélite
  • Mapa do tempo
  • Widgets de tempo
  • user-avatar
    Iniciar Sessão

    Previsão horária em Tauragė

    Hoje, 24 Março, Domingo

    Tempo Temperatura Precipitação Vento Pressão Humidade
    00:00 +3°C° 0 mm 4 m/s 764 mmHg 83%
    01:00 +2°C° 0 mm 3 m/s 764 mmHg 82%
    02:00 +2°C° 0 mm 3 m/s 764 mmHg 82%
    03:00 +2°C° 0 mm 3 m/s 764 mmHg 82%
    04:00 +1°C° 0 mm 3 m/s 764 mmHg 82%
    05:00 +1°C° 0 mm 4 m/s 764 mmHg 81%
    06:00 +1°C° 0 mm 4 m/s 764 mmHg 80%
    07:00 +1°C° 0 mm 4 m/s 764 mmHg 78%
    08:00 +4°C° 0 mm 4 m/s 764 mmHg 72%
    09:00 +5°C° 0 mm 4 m/s 764 mmHg 66%
    10:00 +6°C° 0 mm 4 m/s 764 mmHg 59%
    11:00 +6°C° 0 mm 5 m/s 764 mmHg 56%
    12:00 +7°C° 0 mm 5 m/s 763 mmHg 53%
    13:00 +7°C° 0 mm 5 m/s 763 mmHg 47%
    14:00 +7°C° 0 mm 5 m/s 763 mmHg 50%
    15:00 +6°C° 0 mm 4 m/s 762 mmHg 54%
    16:00 +5°C° 0 mm 4 m/s 762 mmHg 58%
    17:00 +4°C° 0 mm 4 m/s 762 mmHg 65%
    18:00 +3°C° 0 mm 3 m/s 761 mmHg 73%
    19:00 +2°C° 0 mm 3 m/s 761 mmHg 81%
    20:00 +1°C° 0 mm 3 m/s 761 mmHg 83%
    21:00 +1°C° 0 mm 3 m/s 760 mmHg 86%
    22:00 +1°C° 0 mm 3 m/s 760 mmHg 88%
    23:00 +1°C° 0 mm 3 m/s 759 mmHg 90%

    Amanhã, 25 Março, Segunda-feira

    Tempo Temperatura Precipitação Vento Pressão Humidade
    00:00 0°C° 0 mm 3 m/s 759 mmHg 91%
    01:00 0°C° 0 mm 3 m/s 758 mmHg 92%
    02:00 0°C° 0 mm 3 m/s 758 mmHg 93%
    03:00 0°C° 0 mm 3 m/s 757 mmHg 94%
    04:00 0°C° 0 mm 3 m/s 757 mmHg 95%
    05:00 0°C° 0 mm 3 m/s 756 mmHg 93%
    06:00 +1°C° 0 mm 3 m/s 756 mmHg 91%
    07:00 +1°C° 0 mm 3 m/s 756 mmHg 89%
    08:00 +2°C° 0.1 mm 3 m/s 756 mmHg 82%
    09:00 +4°C° 0.1 mm 3 m/s 755 mmHg 74%
    10:00 +5°C° 0.1 mm 3 m/s 755 mmHg 66%
    11:00 +5°C° 0.3 mm 4 m/s 755 mmHg 64%
    12:00 +6°C° 0.3 mm 4 m/s 755 mmHg 62%
    13:00 +6°C° 0.3 mm 4 m/s 755 mmHg 59%
    14:00 +6°C° 0.2 mm 4 m/s 755 mmHg 62%
    15:00 +5°C° 0.2 mm 4 m/s 755 mmHg 65%
    16:00 +5°C° 0.2 mm 4 m/s 755 mmHg 67%
    17:00 +4°C° 0.1 mm 4 m/s 755 mmHg 72%
    18:00 +3°C° 0.1 mm 4 m/s 756 mmHg 78%
    19:00 +2°C° 0.1 mm 3 m/s 756 mmHg 83%
    20:00 0°C° 0 mm 4 m/s 757 mmHg 81%
    21:00 0°C° 0 mm 4 m/s 757 mmHg 80%
    22:00 -1°C° 0 mm 4 m/s 758 mmHg 79%
    23:00 -1°C° 0 mm 4 m/s 758 mmHg 79%

    Depois de amanhã, 26 Março, Terça-feira

    Tempo Temperatura Precipitação Vento Pressão Humidade
    00:00 -1°C° 0 mm 3 m/s 759 mmHg 80%
    01:00 -2°C° 0 mm 3 m/s 759 mmHg 80%
    02:00 -2°C° 0 mm 3 m/s 759 mmHg 79%
    03:00 -1°C° 0 mm 3 m/s 759 mmHg 77%
    04:00 -1°C° 0 mm 3 m/s 759 mmHg 76%
    05:00 -1°C° 0 mm 4 m/s 759 mmHg 73%
    06:00 0°C° 0 mm 5 m/s 758 mmHg 70%
    07:00 -1°C° 0 mm 6 m/s 758 mmHg 66%
    08:00 +1°C° 0.1 mm 6 m/s 758 mmHg 62%
    09:00 +2°C° 0.1 mm 6 m/s 758 mmHg 58%
    10:00 +3°C° 0.1 mm 6 m/s 758 mmHg 53%
    11:00 +3°C° 0.1 mm 6 m/s 757 mmHg 54%
    12:00 +3°C° 0.1 mm 6 m/s 757 mmHg 54%
    13:00 +2°C° 0.1 mm 7 m/s 757 mmHg 55%
    14:00 +2°C° 0.3 mm 7 m/s 757 mmHg 53%
    15:00 0°C° 0.3 mm 7 m/s 757 mmHg 52%
    16:00 -1°C° 0.3 mm 7 m/s 758 mmHg 50%
    17:00 -2°C° 0 mm 6 m/s 759 mmHg 56%
    18:00 -2°C° 0 mm 5 m/s 759 mmHg 62%
    19:00 -3°C° 0 mm 4 m/s 760 mmHg 68%
    20:00 -3°C° 0 mm 4 m/s 761 mmHg 73%
    21:00 -2°C° 0 mm 3 m/s 761 mmHg 78%
    22:00 -2°C° 0 mm 3 m/s 762 mmHg 83%
    23:00 -4°C° 0 mm 3 m/s 763 mmHg 85%

    27 Março, Quarta-feira

    Tempo Temperatura Precipitação Vento Pressão Humidade
    00:00 -4°C° 0 mm 3 m/s 763 mmHg 87%
    01:00 -3°C° 0 mm 2 m/s 764 mmHg 89%
    02:00 -3°C° 0 mm 2 m/s 764 mmHg 87%
    03:00 -3°C° 0 mm 2 m/s 765 mmHg 85%
    04:00 -3°C° 0 mm 2 m/s 765 mmHg 83%
    05:00 -2°C° 0 mm 2 m/s 766 mmHg 79%
    06:00 -2°C° 0 mm 2 m/s 766 mmHg 74%
    07:00 -1°C° 0 mm 2 m/s 766 mmHg 69%
    08:00 +2°C° 0 mm 2 m/s 767 mmHg 63%
    09:00 +3°C° 0 mm 2 m/s 767 mmHg 58%
    10:00 +3°C° 0 mm 3 m/s 767 mmHg 52%
    11:00 +4°C° 0 mm 3 m/s 767 mmHg 50%
    12:00 +5°C° 0 mm 3 m/s 767 mmHg 48%
    13:00 +5°C° 0 mm 3 m/s 767 mmHg 46%
    14:00 +5°C° 0 mm 3 m/s 767 mmHg 48%
    15:00 +6°C° 0 mm 2 m/s 767 mmHg 50%
    16:00 +6°C° 0 mm 2 m/s 767 mmHg 52%
    17:00 +5°C° 0 mm 2 m/s 768 mmHg 58%
    18:00 +4°C° 0 mm 1 m/s 768 mmHg 64%
    19:00 +3°C° 0 mm 1 m/s 768 mmHg 70%
    20:00 +3°C° 0 mm 1 m/s 768 mmHg 72%
    21:00 +3°C° 0 mm 1 m/s 769 mmHg 75%
    22:00 +4°C° 0 mm 1 m/s 769 mmHg 78%
    23:00 +3°C° 0 mm 1 m/s 769 mmHg 82%

    28 Março, Quinta-feira

    Tempo Temperatura Precipitação Vento Pressão Humidade
    00:00 +3°C° 0 mm 1 m/s 769 mmHg 86%
    01:00 +3°C° 0 mm 1 m/s 770 mmHg 90%
    02:00 +3°C° 0 mm 1 m/s 770 mmHg 92%
    03:00 +2°C° 0 mm 0 m/s 770 mmHg 94%
    04:00 +2°C° 0 mm 0 m/s 770 mmHg 95%
    05:00 +3°C° 0 mm 0 m/s 770 mmHg 94%
    06:00 +3°C° 0 mm 0 m/s 771 mmHg 93%
    07:00 +4°C° 0 mm 0 m/s 771 mmHg 92%
    08:00 +5°C° 0 mm 0 m/s 771 mmHg 86%
    09:00 +7°C° 0 mm 1 m/s 772 mmHg 81%
    10:00 +8°C° 0 mm 1 m/s 772 mmHg 76%
    11:00 +9°C° 0 mm 1 m/s 772 mmHg 75%
    12:00 +9°C° 0 mm 1 m/s 772 mmHg 74%
    13:00 +9°C° 0 mm 1 m/s 773 mmHg 73%
    14:00 +9°C° 0 mm 1 m/s 773 mmHg 73%
    15:00 +8°C° 0 mm 2 m/s 772 mmHg 73%
    16:00 +8°C° 0 mm 2 m/s 772 mmHg 73%
    17:00 +8°C° 0 mm 1 m/s 772 mmHg 77%
    18:00 +7°C° 0 mm 1 m/s 773 mmHg 82%
    19:00 +6°C° 0 mm 1 m/s 773 mmHg 86%
    20:00 +6°C° 0 mm 1 m/s 773 mmHg 88%
    21:00 +5°C° 0 mm 1 m/s 773 mmHg 90%
    22:00 +5°C° 0 mm 1 m/s 773 mmHg 92%
    23:00 +4°C° 0 mm 1 m/s 773 mmHg 93%

    29 Março, Sexta-feira

    Tempo Temperatura Precipitação Vento Pressão Humidade
    00:00 +4°C° 0 mm 1 m/s 773 mmHg 93%
    01:00 +4°C° 0 mm 1 m/s 773 mmHg 94%
    02:00 +4°C° 0 mm 1 m/s 773 mmHg 95%
    03:00 +2°C° 0 mm 2 m/s 772 mmHg 95%
    04:00 +2°C° 0 mm 2 m/s 772 mmHg 95%
    05:00 +3°C° 0 mm 2 m/s 772 mmHg 93%
    06:00 +4°C° 0 mm 2 m/s 772 mmHg 91%
    07:00 +4°C° 0 mm 2 m/s 772 mmHg 89%
    08:00 +6°C° 0 mm 2 m/s 772 mmHg 82%
    09:00 +8°C° 0 mm 3 m/s 772 mmHg 75%
    10:00 +10°C° 0 mm 3 m/s 772 mmHg 68%
    11:00 +11°C° 0 mm 4 m/s 771 mmHg 64%
    12:00 +12°C° 0 mm 4 m/s 771 mmHg 61%
    13:00 +12°C° 0 mm 5 m/s 770 mmHg 58%
    14:00 +12°C° 0 mm 5 m/s 770 mmHg 60%
    15:00 +10°C° 0 mm 5 m/s 769 mmHg 63%
    16:00 +9°C° 0 mm 5 m/s 769 mmHg 66%
    17:00 +8°C° 0 mm 4 m/s 769 mmHg 72%
    18:00 +6°C° 0 mm 4 m/s 769 mmHg 79%
    19:00 +5°C° 0 mm 3 m/s 768 mmHg 86%
    20:00 +4°C° 0 mm 3 m/s 768 mmHg 87%
    21:00 +4°C° 0 mm 3 m/s 768 mmHg 89%
    22:00 +4°C° 0 mm 3 m/s 768 mmHg 90%
    23:00 +4°C° 0 mm 3 m/s 768 mmHg 90%
    Mostrar mais